| time (UTC) | temp C | wind direction | speed KPH | gust KPH | rain 1hr cm | rain 24hr cm | rain mn cm | humidity % | barometer mb |
| 20260509024557 | 22 | 144 | 1.6 | 6.4 | 0.00 | 0.05 | 0.05 | 89 | 1008.3 |
| 20260509023106 | 22 | 125 | 1.6 | 6.4 | 0.00 | 0.05 | 0.05 | 89 | 1008.2 |
| 20260509021554 | 22 | 90 | 0.0 | 4.8 | 0.00 | 0.05 | 0.05 | 88 | 1008.2 |
| 20260509020054 | 22 | 123 | 0.0 | 4.8 | 0.00 | 0.05 | 0.05 | 87 | 1008.0 |
| 20260509014552 | 22 | 124 | 0.0 | 4.8 | 0.00 | 0.05 | 0.05 | 87 | 1007.8 |
| 20260509013052 | 23 | 86 | 0.0 | 6.4 | 0.00 | 0.05 | 0.05 | 86 | 1007.7 |
| 20260509011552 | 23 | 28 | 0.0 | 6.4 | 0.00 | 0.05 | 0.05 | 85 | 1007.7 |
| 20260509010052 | 23 | 131 | 4.8 | 12.9 | 0.00 | 0.05 | 0.05 | 85 | 1007.6 |
| 20260509004553 | 23 | 86 | 1.6 | 8.0 | 0.00 | 0.05 | 0.05 | 84 | 1007.7 |
| 20260509003050 | 23 | 88 | 1.6 | 9.7 | 0.00 | 0.05 | 0.05 | 83 | 1007.7 |
| 20260509001547 | 23 | 86 | 1.6 | 11.3 | 0.00 | 0.05 | 0.05 | 83 | 1007.7 |
| 20260509000047 | 23 | 98 | 1.6 | 8.0 | 0.00 | 0.05 | 0.05 | 83 | 1007.8 |
| 20260508234550 | 24 | 76 | 0.0 | 6.4 | 0.00 | 0.05 | 0.05 | 82 | 1007.9 |
| 20260508233050 | 24 | 54 | 1.6 | 8.0 | 0.00 | 0.05 | 0.05 | 81 | 1007.9 |
| 20260508231544 | 24 | 130 | 4.8 | 11.3 | 0.00 | 0.05 | 0.05 | 80 | 1007.8 |
| 20260508230107 | 25 | 40 | 1.6 | 8.0 | 0.00 | 0.05 | 0.05 | 79 | 1007.8 |
| 20260508224549 | 25 | 81 | 4.8 | 12.9 | 0.00 | 0.05 | 0.05 | 79 | 1007.8 |
| 20260508223041 | 25 | 136 | 4.8 | 12.9 | 0.00 | 0.05 | 0.05 | 78 | 1007.9 |
| 20260508221540 | 25 | 120 | 3.2 | 12.9 | 0.00 | 0.05 | 0.05 | 77 | 1007.9 |
| 20260508220108 | 25 | 108 | 3.2 | 11.3 | 0.00 | 0.05 | 0.05 | 76 | 1008.1 |
| 20260508214538 | 25 | 96 | 4.8 | 11.3 | 0.00 | 0.05 | 0.05 | 75 | 1008.3 |
| 20260508213037 | 25 | 107 | 4.8 | 12.9 | 0.00 | 0.05 | 0.05 | 75 | 1008.2 |
| 20260508211540 | 25 | 145 | 4.8 | 14.5 | 0.00 | 0.05 | 0.05 | 76 | 1008.5 |
| 20260508210033 | 25 | 39 | 3.2 | 11.3 | 0.00 | 0.05 | 0.05 | 77 | 1008.8 |
| 20260508204528 | 24 | 52 | 3.2 | 14.5 | 0.00 | 0.05 | 0.05 | 76 | 1009.1 |
| 20260508203023 | 24 | 5 | 1.6 | 14.5 | 0.00 | 0.05 | 0.05 | 77 | 1009.4 |
| 20260508201531 | 24 | 137 | 6.4 | 16.1 | 0.00 | 0.05 | 0.05 | 75 | 1009.6 |
| 20260508200018 | 24 | 97 | 4.8 | 12.9 | 0.00 | 0.05 | 0.05 | 77 | 1009.7 |
| 20260508194514 | 23 | 123 | 1.6 | 9.7 | 0.00 | 0.05 | 0.05 | 78 | 1009.9 |
| 20260508193010 | 23 | 11 | 3.2 | 12.9 | 0.00 | 0.05 | 0.05 | 76 | 1010.2 |
| 20260508191515 | 23 | 5 | 3.2 | 14.5 | 0.00 | 0.05 | 0.05 | 77 | 1010.2 |
| 20260508190004 | 23 | 99 | 3.2 | 11.3 | 0.00 | 0.05 | 0.05 | 78 | 1010.4 |
| 20260508184601 | 22 | 9 | 3.2 | 6.4 | 0.00 | 0.05 | 0.05 | 78 | 1010.7 |
| 20260508184500 | 22 | 5 | 3.2 | 6.4 | 0.00 | 0.05 | 0.05 | 79 | 1010.7 |
| 20260508183059 | 22 | 74 | 1.6 | 6.4 | 0.00 | 0.05 | 0.05 | 80 | 1010.9 |
| 20260508181607 | 22 | 36 | 1.6 | 6.4 | 0.00 | 0.05 | 0.05 | 80 | 1011.1 |
| 20260508180104 | 22 | 118 | 3.2 | 8.0 | 0.00 | 0.05 | 0.05 | 79 | 1011.2 |
| 20260508174602 | 21 | 321 | 1.6 | 8.0 | 0.00 | 0.05 | 0.05 | 79 | 1011.3 |
| 20260508173046 | 21 | 327 | 3.2 | 9.7 | 0.00 | 0.05 | 0.05 | 81 | 1011.4 |
| 20260508171543 | 21 | 126 | 1.6 | 8.0 | 0.00 | 0.05 | 0.05 | 81 | 1011.7 |
| 20260508170039 | 20 | 46 | 0.0 | 4.8 | 0.00 | 0.05 | 0.05 | 82 | 1012.1 |
| 20260508164536 | 20 | 104 | 0.0 | 3.2 | 0.00 | 0.05 | 0.05 | 82 | 1012.4 |
| 20260508163038 | 19 | 84 | 0.0 | 3.2 | 0.00 | 0.05 | 0.05 | 83 | 1012.4 |
| 20260508161535 | 19 | 144 | 0.0 | 3.2 | 0.00 | 0.05 | 0.05 | 82 | 1012.6 |
| 20260508160031 | 19 | 117 | 1.6 | 6.4 | 0.00 | 0.05 | 0.05 | 82 | 1012.7 |
| 20260508154529 | 19 | 130 | 1.6 | 4.8 | 0.00 | 0.05 | 0.05 | 83 | 1012.9 |
| 20260508153027 | 18 | 159 | 0.0 | 6.4 | 0.00 | 0.05 | 0.05 | 84 | 1012.9 |
| 20260508151527 | 18 | 115 | 3.2 | 6.4 | 0.00 | 0.05 | 0.05 | 84 | 1012.8 |
| 20260508150026 | 18 | 110 | 1.6 | 8.0 | 0.00 | 0.05 | 0.05 | 84 | 1012.9 |
| 20260508144521 | 18 | 101 | 1.6 | 6.4 | 0.00 | 0.05 | 0.05 | 86 | 1012.8 |
| 20260508143024 | 17 | 93 | 0.0 | 6.4 | 0.00 | 0.05 | 0.05 | 86 | 1012.8 |
| 20260508141515 | 17 | 112 | 0.0 | 4.8 | 0.00 | 0.05 | 0.05 | 87 | 1012.9 |
| 20260508140024 | 17 | 103 | 1.6 | 6.4 | 0.00 | 0.05 | 0.05 | 90 | 1012.9 |
| 20260508134515 | 16 | 360 | 0.0 | 1.6 | 0.00 | 0.05 | 0.05 | 92 | 1012.8 |
| 20260508133008 | 16 | 146 | 0.0 | 4.8 | 0.00 | 0.05 | 0.05 | 92 | 1013.2 |
| 20260508131505 | 15 | 134 | 0.0 | 1.6 | 0.00 | 0.05 | 0.05 | 92 | 1013.4 |
| 20260508130006 | 15 | 59 | 0.0 | 1.6 | 0.00 | 0.05 | 0.05 | 92 | 1013.1 |
| 20260508124509 | 15 | 112 | 0.0 | 0.0 | 0.00 | 0.05 | 0.05 | 92 | 1013.2 |
| 20260508123002 | 15 | 112 | 0.0 | 0.0 | 0.00 | 0.05 | 0.05 | 92 | 1013.3 |
| 20260508121601 | 15 | 115 | 0.0 | 0.0 | 0.00 | 0.05 | 0.05 | 92 | 1013.4 |
| 20260508120100 | 15 | 114 | 0.0 | 0.0 | 0.00 | 0.05 | 0.05 | 92 | 1013.5 |
| 20260508114559 | 15 | 355 | 0.0 | 0.0 | 0.00 | 0.05 | 0.05 | 92 | 1013.8 |
| 20260508113105 | 15 | 355 | 0.0 | 0.0 | 0.00 | 0.05 | 0.05 | 92 | 1014.0 |
| 20260508111559 | 15 | 355 | 0.0 | 0.0 | 0.00 | 0.05 | 0.05 | 92 | 1013.7 |
| 20260508110058 | 15 | 328 | 0.0 | 1.6 | 0.00 | 0.05 | 0.05 | 92 | 1013.6 |
| 20260508104601 | 15 | 312 | 0.0 | 3.2 | 0.03 | 0.05 | 0.05 | 91 | 1013.5 |
| 20260508103057 | 15 | 312 | 0.0 | 1.6 | 0.05 | 0.05 | 0.05 | 91 | 1014.0 |
| 20260508101559 | 15 | 302 | 0.0 | 1.6 | 0.05 | 0.05 | 0.05 | 91 | 1014.0 |
| 20260508100055 | 15 | 302 | 0.0 | 4.8 | 0.05 | 0.05 | 0.05 | 90 | 1014.3 |
| 20260508094612 | 15 | 321 | 0.0 | 4.8 | 0.03 | 0.03 | 0.03 | 89 | 1014.4 |
| 20260508093053 | 15 | 323 | 0.0 | 4.8 | 0.00 | 0.00 | 0.00 | 87 | 1014.6 |
| 20260508091548 | 15 | 270 | 0.0 | 3.2 | 0.00 | 0.00 | 0.00 | 88 | 1014.2 |
| 20260508090051 | 15 | 270 | 0.0 | 1.6 | 0.00 | 0.00 | 0.00 | 88 | 1014.0 |
| 20260508084544 | 15 | 270 | 0.0 | 1.6 | 0.00 | 0.00 | 0.00 | 89 | 1013.7 |
| 20260508083041 | 15 | 270 | 0.0 | 0.0 | 0.00 | 0.00 | 0.00 | 90 | 1014.0 |
| 20260508081559 | 14 | 270 | 0.0 | 0.0 | 0.00 | 0.00 | 0.00 | 91 | 1013.6 |
| 20260508080046 | 14 | 270 | 0.0 | 0.0 | 0.00 | 0.00 | 0.00 | 91 | 1013.5 |
| 20260508074538 | 14 | 270 | 0.0 | 0.0 | 0.00 | 0.00 | 0.00 | 91 | 1013.5 |
| 20260508073042 | 14 | 270 | 0.0 | 0.0 | 0.00 | 0.00 | 0.00 | 91 | 1013.6 |
| 20260508071542 | 13 | 270 | 0.0 | 0.0 | 0.00 | 0.00 | 0.00 | 91 | 1013.8 |
| 20260508070032 | 13 | 270 | 0.0 | 0.0 | 0.00 | 0.00 | 0.00 | 90 | 1014.2 |
| 20260508064532 | 13 | 270 | 0.0 | 0.0 | 0.00 | 0.00 | 0.00 | 90 | 1014.5 |
| 20260508063044 | 14 | 270 | 0.0 | 0.0 | 0.00 | 0.00 | 0.00 | 89 | 1014.7 |
| 20260508061529 | 14 | 270 | 0.0 | 0.0 | 0.00 | 0.00 | 0.00 | 89 | 1014.6 |
| 20260508060034 | 14 | 270 | 0.0 | 0.0 | 0.00 | 0.00 | 0.00 | 89 | 1014.6 |
| 20260508054529 | 14 | 270 | 0.0 | 1.6 | 0.00 | 0.00 | 0.00 | 89 | 1014.4 |
| 20260508053025 | 14 | 270 | 0.0 | 0.0 | 0.00 | 0.00 | 0.00 | 88 | 1014.4 |
| 20260508051525 | 14 | 270 | 0.0 | 0.0 | 0.00 | 0.00 | 0.00 | 88 | 1014.4 |
| 20260508050022 | 14 | 270 | 0.0 | 0.0 | 0.00 | 0.00 | 0.00 | 88 | 1014.7 |
| 20260508044528 | 15 | 270 | 0.0 | 0.0 | 0.00 | 0.00 | 0.00 | 88 | 1014.9 |
| 20260508043022 | 15 | 153 | 0.0 | 0.0 | 0.00 | 0.00 | 0.00 | 87 | 1014.8 |
| 20260508041521 | 15 | 153 | 0.0 | 1.6 | 0.00 | 0.00 | 0.00 | 86 | 1014.8 |
| 20260508040020 | 15 | 160 | 0.0 | 0.0 | 0.00 | 0.00 | 0.00 | 85 | 1015.2 |
| 20260508034520 | 15 | 160 | 0.0 | 3.2 | 0.00 | 0.00 | 0.00 | 85 | 1015.4 |
| 20260508033022 | 15 | 160 | 0.0 | 1.6 | 0.00 | 0.00 | 0.00 | 84 | 1015.5 |
| 20260508031518 | 15 | 264 | 1.6 | 3.2 | 0.00 | 0.00 | 0.00 | 84 | 1015.0 |
| 20260508030018 | 15 | 294 | 0.0 | 1.6 | 0.00 | 0.00 | 0.00 | 83 | 1014.8 |